Showing default

UK-DMC, 27942

Orbit data source: Space-Track

UK-DMC, 27942 is a payload satellite owned by BNSC (UK) in SSO that was launched on Sat, 27 Sep 2003 UTC via a KOSMOS 11K65M launch vehicle from the Plesetsk Missile And Space Complex (PKMTR). Payload-class satellites include a variety of spacecraft equipped with specific instruments for various scientific and technological missions. These include communications satellites like Starlink; space stations such as the ISS; scientific satellites like the Hubble; Earth observation satellites from companies like Planet Labs, Umbra, and HawkEye 360; GPS; miniature CubeSats for education and research; and military/defense satellites.

Loading next visibility...
Identifier
27942, 2003-042D
Orbit
SSO
Country
Flag of UKUK
Related business
Manufacturer
SSTL
Mission
Non-operational Civil Imaging
Bus & Motor
SSTL-100, Unknown motor
Mass
100 kg wet, 85.4 kg dry
Launch date (UTC)
2003-09-27 (22 years ago)
Launch vehicle
KOSMOS 11K65M
Launch site
Plesetsk Missile And Space Complex (PKMTR)
Object type
Payload
Rocket body
Debris
Shape & HBR
Box + 1 Arm, 3.3 m
Radar Cross Section
0.540 m², Medium (>0.1 m² and < 1m²)

Expand to show TLE details & history
Last TLE update: 8 hours ago

TLE from 8 hours ago
0 UK-DMC
1 27942U 03042D   25308.49848242  .00001850  00000-0  21192-3 0  9994
2 27942  98.0772 128.9022 0053655 216.1330 143.6255 14.86211827189388
Epoch: 2025-11-04T11:57Z
TLE epoch observation values (Epoch: 2025-11-04T11:57:48.881Z)
Latitude
Longitude
-94.53611°
Altitude
643.074 km
Speed
7.52 km/s
True Right ascension
08h 35m 36s
True Declination
0° 00' 00"
Sunlit
Object was in daylight at epoch
Visualization orbit readout
Latitude
Unknown
Longitude
Unknown
Altitude
Unknown
Speed
Unknown
Apparent Right ascension
Unknown
Apparent Declination
Unknown
Sunlit
N/A
Visualization observer readout
Local Sidereal Time
16:24:10
Azimuth
Unknown
Elevation
Unknown
Doppler factor
Unknown
Orbital elements
Apogee altitude
644.303 km
Perigee altitude
569.347 km
Semi-major axis
6,984.962 km
Eccentricity
0.00537
Inclination
98.0772°
RAAN
128.9022°
Arg. of periapsis
216.133°
True anomaly
143.98818°
Mean anomaly
143.6255°
Eccentric anomaly
143.80703°
Mean motion
3.71789 °/min
Orbital period
96.83 mins
BSTAR
0.00021192
Loading maneuver chart data...
Computing Atmospheric mass density...
Loading historical data...
Loading historical data...
Loading historical data...
Loading historical data...
Loading historical data...
Loading historical data...
Loading historical data...

Documentation

Showing up to 5 results
|